Terminal Aerodrome Forecast
Issued by NWS

Home | Current Version | Previous Version | Text Only | Print | Product List | Glossary On
Versions: 1 2 3 4 5 6 7 8 9 10 11 12 13
000
FTUS46 KSTO 042332
TAFSAC
TAF
KSAC 042332Z 0500/0524 19010G17KT P6SM SKC
     FM050700 VRB05KT P6SM SKC
     FM051700 33010G16KT P6SM SKC=

USA.gov is the U.S. government's official web portal to all federal, state and local government web resources and services.